Stations météo

réclame
Mon MeteoGroup
Lechfeld, Allemagne (10856): Température de l'air & dewpoint: 12.02.2018 21:00:00 - 18.02.2018 21:00:00 (CET)Lechfeld, Allemagne (10856): Température de l'air -5cm: 12.02.2018 21:00:00 - 18.02.2018 21:00:00 (CET)Lechfeld, Allemagne (10856): Température de l'air -20cm & Température de l'air -100cm: 12.02.2018 21:00:00 - 18.02.2018 21:00:00 (CET)Lechfeld, Allemagne (10856): Vitesse du vent: 12.02.2018 21:00:00 - 18.02.2018 21:00:00 (CET)Lechfeld, Allemagne (10856): Direction du vent: 12.02.2018 21:00:00 - 18.02.2018 21:00:00 (CET)Lechfeld, Allemagne (10856): reduced air pressure: 12.02.2018 21:00:00 - 18.02.2018 21:00:00 (CET)Lechfeld, Allemagne (10856): visibility: 12.02.2018 21:00:00 - 18.02.2018 21:00:00 (CET)
Date & Time tt [°C] td [°C] tt -5cm [°C] tt -20cm [°C] tt -100cm [°C] ff [km/h] ff [knt] dd ppp [hPa] vv [km]
18.02.2018 21:00:00 - - - - - - - - - -
18.02.2018 20:00:00 -1,4 -3,5 - - - 7 4 E 1027,0 9
18.02.2018 19:00:00 -1,0 -2,8 - - - 11 6 ENE 1027,2 8
18.02.2018 18:00:00 -0,9 -2,4 - - - 14 8 NE 1027,1 5
18.02.2018 17:00:00 -0,6 -1,8 - - - 18 10 NE 1027,3 5
18.02.2018 16:00:00 -0,5 -1,7 - - - 14 8 NE 1027,2 4,7
18.02.2018 15:00:00 -0,6 -1,8 -0,1 0,5 - 11 6 NE 1027,3 3,8
18.02.2018 14:00:00 -0,6 -2,2 - - - 7 4 NE 1027,3 4,3
18.02.2018 13:00:00 -0,8 -2,4 - - - 7 4 NE 1027,8 4,6
18.02.2018 12:00:00 -1,3 -2,3 - - - 7 4 NE 1028,4 2,9
18.02.2018 11:00:00 -1,8 -1,9 - - - 7 4 NE 1028,4 0,6
18.02.2018 10:00:00 -1,9 -2,0 - - - 7 4 NE 1028,0 0,2
18.02.2018 09:00:00 -2,0 -2,7 - - - 7 4 NNE 1028,1 2,3
18.02.2018 08:00:00 -2,1 -2,7 -0,1 0,5 3,4 4 2 - 1028,0 3,3
18.02.2018 07:00:00 -2,1 -2,7 - - - 4 2 - 1027,6 3,6
18.02.2018 06:00:00 -2,0 -2,5 - - - 4 2 - 1027,3 3,0
18.02.2018 05:00:00 -1,9 -2,5 - - - 4 2 - 1027,1 2,6
18.02.2018 04:00:00 -1,8 -2,2 - - - 7 4 - 1026,8 2,2
18.02.2018 03:00:00 -1,6 -2,1 - - - 7 4 NNW 1026,4 2,8
18.02.2018 02:00:00 -1,6 -2,0 - - - 4 2 NW 1026,1 2,1
18.02.2018 01:00:00 -1,4 -1,9 - - - 7 4 N 1025,4 3,6
18.02.2018 00:00:00 -1,4 -1,5 - - - 4 2 NW 1024,7 1,4
17.02.2018 23:00:00 -1,4 -1,5 - - - 4 2 - 1023,8 0,9
17.02.2018 22:00:00 -1,3 -1,4 - - - 7 4 - 1023,1 1,2
17.02.2018 21:00:00 -1,3 -1,4 - - - 7 4 NW 1022,4 1,0
17.02.2018 20:00:00 -1,2 -1,3 - - - 4 2 NNW 1021,7 1,1
17.02.2018 19:00:00 -1,2 -1,5 - - - 7 4 N 1021,2 1,3
17.02.2018 18:00:00 -1,1 -1,6 - - - 11 6 NNE 1020,1 1,1
17.02.2018 17:00:00 -0,5 -0,8 - - - 7 4 - 1018,9 1,3
17.02.2018 16:00:00 -0,3 -0,7 - - - 11 6 NE 1018,2 1,2
17.02.2018 15:00:00 -0,4 -0,9 -0,1 0,5 - 11 6 - 1018,3 0,8
17.02.2018 14:00:00 -0,7 -1,2 - - - 11 6 NNE 1018,7 0,7
17.02.2018 13:00:00 -0,9 -1,5 - - - 11 6 - 1018,9 0,6
17.02.2018 12:00:00 -1,0 -1,6 - - - 18 10 NE 1019,3 0,9
17.02.2018 11:00:00 -1,2 -1,6 - - - 14 8 NNE 1020,2 0,7
17.02.2018 10:00:00 -1,2 -1,5 - - - 18 10 - 1020,0 1,0
17.02.2018 09:00:00 -1,1 -1,2 - - - 22 12 - 1021,1 1,0
17.02.2018 08:00:00 -0,8 -1,0 -0,1 0,5 3,5 22 12 NE 1021,3 2,2
17.02.2018 07:00:00 -0,5 -0,7 - - - 22 12 ENE 1022,4 2,0
17.02.2018 06:00:00 -0,5 -0,6 - - - 22 12 NE 1023,0 2,0
17.02.2018 05:00:00 -0,3 -0,4 - - - 18 10 NE 1024,2 0,6
17.02.2018 04:00:00 0,0 -0,1 - - - 14 8 ENE 1024,8 0,4
17.02.2018 03:00:00 -0,1 -0,2 - - - 14 8 NE 1026,0 0,3
17.02.2018 02:00:00 0,0 0,0 - - - 11 6 ENE 1026,8 0,3
17.02.2018 01:00:00 -0,1 -0,2 - - - 7 4 NNE 1027,3 0,3
17.02.2018 00:00:00 0,4 0,3 - - - 4 2 NNE 1027,6 0,3
16.02.2018 23:00:00 0,3 0,2 - - - 4 2 N 1027,6 0,3
16.02.2018 22:00:00 0,2 0,1 - - - 7 4 SE 1028,1 0,3
16.02.2018 21:00:00 0,0 -0,1 - - - 7 4 SE 1028,3 0,2
16.02.2018 20:00:00 0,4 0,3 - - - 2 1 ESE 1029,0 0,2
16.02.2018 19:00:00 0,5 0,4 - - - 4 2 SSE 1028,8 -
16.02.2018 18:00:00 2,3 2,2 - - - 4 2 SSE 1028,2 -
16.02.2018 17:00:00 3,0 3,0 - - - 4 2 N 1028,1 2,5
16.02.2018 16:00:00 3,2 2,9 - - - 7 4 SSW 1028,1 2,5
16.02.2018 15:00:00 3,6 2,4 -0,1 0,4 - 4 2 W 1027,9 15
16.02.2018 14:00:00 3,8 2,9 - - - 7 4 SSW 1027,7 20
16.02.2018 13:00:00 3,4 2,4 - - - 7 4 SSW 1028,2 18
16.02.2018 12:00:00 3,4 2,4 - - - 7 4 SW 1028,1 15
16.02.2018 11:00:00 3,3 2,4 - - - 7 4 WSW 1027,6 4,5
16.02.2018 10:00:00 3,0 2,9 - - - 7 4 SSW 1027,1 2,5
16.02.2018 09:00:00 2,8 2,7 - - - 7 4 SW 1026,5 3,7
16.02.2018 08:00:00 2,7 2,6 -0,1 0,4 3,6 7 4 SW 1025,8 1,6
16.02.2018 07:00:00 2,6 2,5 - - - 7 4 SSW 1024,6 3,0
16.02.2018 06:00:00 2,8 2,7 - - - 7 4 SW 1023,7 5
16.02.2018 05:00:00 2,7 2,7 - - - 7 4 W 1022,9 5
16.02.2018 04:00:00 3,0 2,9 - - - 14 8 WNW 1021,7 4,0
16.02.2018 03:00:00 3,9 3,8 - - - 14 8 WSW 1020,6 5
16.02.2018 02:00:00 3,9 3,8 - - - 11 6 WSW 1020,3 6
16.02.2018 01:00:00 4,3 4,2 - - - 14 8 WSW 1019,8 10
16.02.2018 00:00:00 4,2 3,9 - - - 18 10 SW 1019,6 10
15.02.2018 23:00:00 3,9 3,7 - - - 14 8 SW 1019,9 15
15.02.2018 22:00:00 3,7 3,7 - - - 11 6 SSW 1019,8 15
15.02.2018 21:00:00 3,7 3,4 - - - 14 8 SSW 1019,9 15
15.02.2018 20:00:00 3,1 3,1 - - - 11 6 SSW 1020,2 15
15.02.2018 19:00:00 2,8 2,1 - - - 7 4 SW 1020,3 20
15.02.2018 18:00:00 1,9 1,8 - - - 11 6 SSW 1020,1 6
15.02.2018 17:00:00 0,1 -0,1 - - - 7 4 S 1020,4 6
15.02.2018 16:00:00 -0,2 -0,9 - - - 11 6 SSE 1020,2 5
15.02.2018 15:00:00 -0,5 -1,7 -0,4 0,4 - 7 4 SSE 1020,4 2,0
15.02.2018 14:00:00 -0,6 -2,8 - - - 7 4 SSE 1020,2 3,0
15.02.2018 13:00:00 -0,2 -6,5 - - - 7 4 S 1020,3 4,0
15.02.2018 12:00:00 -1,2 -7,5 - - - 7 4 N 1020,7 40
15.02.2018 11:00:00 -2,5 -7,4 - - - 7 4 S 1021,1 40
15.02.2018 10:00:00 -4,1 -8,3 - - - 4 2 SSE 1021,4 70
15.02.2018 09:00:00 -4,9 -8,0 - - - 0 0 N 1021,3 70
15.02.2018 08:00:00 -6,6 -8,3 -1,1 0,5 3,7 4 2 E 1021,1 70
15.02.2018 07:00:00 -6,7 -8,5 - - - 7 4 NE 1021,4 60
15.02.2018 06:00:00 -7,5 -9,2 - - - 4 2 E 1021,6 50
15.02.2018 05:00:00 -8,4 -10,0 - - - 0 0 N 1022,2 50
15.02.2018 04:00:00 -8,0 -9,1 - - - 7 4 N 1022,3 30
15.02.2018 03:00:00 -8,4 -9,6 - - - 4 2 N 1022,8 15
15.02.2018 02:00:00 -7,8 -8,8 - - - 4 2 N 1023,0 15
15.02.2018 01:00:00 -7,5 -8,5 - - - 4 2 ESE 1022,9 15
15.02.2018 00:00:00 -6,6 -8,3 - - - 7 4 ESE 1023,2 15
14.02.2018 23:00:00 -8,6 -10,2 - - - 11 6 E 1024,1 10
14.02.2018 22:00:00 -7,2 -8,7 - - - 7 4 E 1024,1 10
14.02.2018 21:00:00 -6,7 -8,6 - - - 11 6 E 1023,6 10
14.02.2018 20:00:00 -6,0 -8,1 - - - 7 4 E 1023,1 10
14.02.2018 19:00:00 -4,7 -7,3 - - - 11 6 ENE 1022,3 10
14.02.2018 18:00:00 -3,8 -7,4 - - - 7 4 ENE 1021,6 12
14.02.2018 17:00:00 -0,6 -6,8 - - - 11 6 ENE 1020,3 15
14.02.2018 16:00:00 0,0 -7,5 - - - 7 4 ENE 1020,0 15
14.02.2018 15:00:00 0,0 -7,4 -0,2 0,7 - 11 6 ENE 1019,4 15
14.02.2018 14:00:00 -0,8 -7,8 - - - 7 4 ESE 1019,9 15
14.02.2018 13:00:00 -1,7 -6,1 - - - 7 4 NE 1020,3 8
14.02.2018 12:00:00 -4,3 -6,6 - - - 4 2 NW 1020,7 6
14.02.2018 11:00:00 -5,5 -6,3 - - - 5 3 - 1020,7 3,0
14.02.2018 10:00:00 -6,6 -7,4 - - - 4 2 - 1020,7 3,0
14.02.2018 09:00:00 -7,1 -7,9 - - - 7 4 SE 1020,2 0,4
14.02.2018 08:00:00 -7,3 -8,2 -0,2 0,8 3,7 4 2 E 1019,4 0,6
14.02.2018 07:00:00 -8,5 -9,0 - - - 7 4 SW 1019,0 1,0
14.02.2018 06:00:00 -10,8 -12,1 - - - 4 2 SSW 1018,5 0,8
14.02.2018 05:00:00 -10,6 -11,7 - - - 0 0 N 1017,6 10
14.02.2018 04:00:00 -10,4 -11,4 - - - 4 2 SSW 1017,1 12
14.02.2018 03:00:00 -9,6 -10,6 - - - 4 2 N 1016,6 15
14.02.2018 02:00:00 -7,2 -8,1 - - - 4 2 N 1015,8 20
14.02.2018 01:00:00 -7,4 -8,4 - - - 4 2 ENE 1015,8 20
14.02.2018 00:00:00 -6,7 -8,0 - - - 4 2 N 1015,4 25
13.02.2018 23:00:00 -7,8 -9,4 - - - 7 4 ENE 1015,7 25
13.02.2018 22:00:00 -5,6 -8,1 - - - 7 4 E 1015,3 25
13.02.2018 21:00:00 -6,5 -8,5 - - - 11 6 ENE 1015,6 40
13.02.2018 20:00:00 -6,0 -9,5 - - - 11 6 ENE 1015,4 60
13.02.2018 19:00:00 -4,7 -8,8 - - - 7 4 ENE 1015,0 70
13.02.2018 18:00:00 -3,2 -8,5 - - - 14 8 ENE 1014,4 70
13.02.2018 17:00:00 -0,6 -7,7 - - - 22 12 ENE 1013,9 60
13.02.2018 16:00:00 0,2 -7,4 - - - 18 10 ENE 1014,2 60
13.02.2018 15:00:00 0,7 -6,2 0,1 0,8 - 18 10 NE 1014,7 60
13.02.2018 14:00:00 0,1 -7,5 - - - 14 8 ENE 1015,7 50
13.02.2018 13:00:00 -0,2 -6,1 - - - 11 6 E 1016,9 50
13.02.2018 12:00:00 -0,9 -5,4 - - - 11 6 ESE 1018,1 30
13.02.2018 11:00:00 -1,0 -5,6 - - - 4 2 N 1018,8 25
13.02.2018 10:00:00 -3,6 -6,4 - - - 11 6 S 1020,1 20
13.02.2018 09:00:00 -5,8 -7,4 - - - 14 8 S 1021,0 12
13.02.2018 08:00:00 -6,7 -7,3 0,1 0,8 3,8 7 4 S 1021,5 12
13.02.2018 07:00:00 -6,0 -6,4 - - - 11 6 S 1021,3 12
13.02.2018 06:00:00 -6,5 -6,8 - - - 11 6 S 1021,5 10
13.02.2018 05:00:00 -5,3 -6,1 - - - 11 6 SSW 1021,2 10
13.02.2018 04:00:00 -5,0 -5,6 - - - 11 6 SSW 1021,3 10
13.02.2018 03:00:00 -5,0 -5,5 - - - 11 6 S 1021,5 15
13.02.2018 02:00:00 -2,9 -4,4 - - - 7 4 SSW 1021,3 12
13.02.2018 01:00:00 -2,9 -4,6 - - - 7 4 S 1021,3 10
13.02.2018 00:00:00 -2,2 -4,0 - - - 11 6 WSW 1021,2 10
12.02.2018 23:00:00 -2,3 -3,8 - - - 11 6 SW 1021,2 15
12.02.2018 22:00:00 -2,4 -3,2 - - - 7 4 SW 1021,0 8
12.02.2018 21:00:00 -2,1 -4,1 - - - 7 4 SSW 1020,5 20

tt = Température de l'air
td = dewpoint
tt -5cm = Température de l'air -5cm
tt -20cm = Température de l'air -20cm
tt -100cm = Température de l'air -100cm
ff = Vitesse du vent
dd = Direction du vent
ppp = reduced air pressure
vv = visibility

stations d'obs. à proximité